DW0774 Weather Reports


time (UTC)temp
C
wind
direction
speed
KPH
gust
KPH
rain 1hr
cm
rain 24hr
cm
rain mn
cm
humidity
%
barometer
mb
20260906220007 25 124 9.7 25.7 0.00 0.00 0.00 33 1025.7
20260906214503 26 135 14.5 30.6 0.00 0.00 0.00 32 1025.7
20260906213016 26 163 16.1 30.6 0.00 0.00 0.00 31 1025.8
20260906211519 26 145 16.1 32.2 0.00 0.00 0.00 32 1025.9
20260906210009 26 133 19.3 32.2 0.00 0.00 0.00 30 1026.0
20260906204512 26 117 17.7 30.6 0.00 0.00 0.00 31 1026.0
20260906203006 25 192 14.5 29.0 0.00 0.00 0.00 32 1026.1
20260906201502 26 162 17.7 33.8 0.00 0.00 0.00 31 1026.2
20260906200003 27 149 14.5 29.0 0.00 0.00 0.00 31 1026.3
20260906194503 26 168 17.7 30.6 0.00 0.00 0.00 33 1026.6
20260906193003 26 164 19.3 33.8 0.00 0.00 0.00 32 1026.8
20260906191505 26 130 17.7 33.8 0.00 0.00 0.00 32 1026.8
20260906190002 27 168 14.5 33.8 0.00 0.00 0.00 31 1027.1
20260906184504 27 143 12.9 27.4 0.00 0.00 0.00 32 1027.2
20260906183010 26 170 12.9 29.0 0.00 0.00 0.00 34 1027.4
20260906181502 26 185 8.0 24.1 0.00 0.00 0.00 34 1027.6
20260906180007 26 131 12.9 35.4 0.00 0.00 0.00 33 1027.8
20260906174503 25 140 9.7 29.0 0.00 0.00 0.00 34 1028.1
20260906173003 23 175 6.4 22.5 0.00 0.00 0.00 35 1028.1
20260906171505 25 110 11.3 24.1 0.00 0.00 0.00 32 1028.2
20260906170015 25 103 8.0 17.7 0.00 0.00 0.00 32 1028.4
20260906164506 24 174 4.8 17.7 0.00 0.00 0.00 33 1028.5
20260906163003 23 138 3.2 12.9 0.00 0.00 0.00 34 1028.3
20260906161504 22 15 4.8 17.7 0.00 0.00 0.00 34 1028.4
20260906160006 21 20 4.8 16.1 0.00 0.00 0.00 36 1028.4
20260906154515 21 346 6.4 14.5 0.00 0.00 0.00 39 1028.3
20260906153003 20 15 4.8 12.9 0.00 0.00 0.00 39 1028.6
20260906151510 19 341 4.8 9.7 0.00 0.00 0.00 41 1028.8
20260906150009 18 360 4.8 8.0 0.00 0.00 0.00 43 1028.8
20260906144506 17 26 1.6 4.8 0.00 0.00 0.00 45 1028.8
20260906143005 17 300 3.2 8.0 0.00 0.00 0.00 47 1028.7
20260906141524 16 355 1.6 6.4 0.00 0.00 0.00 48 1028.6
20260906140011 16 286 0.0 0.0 0.00 0.00 0.00 48 1028.6
20260906134535 16 286 0.0 0.0 0.00 0.00 0.00 47 1028.5
20260906133010 15 285 0.0 0.0 0.00 0.00 0.00 48 1028.4
20260906131509 15 286 0.0 4.8 0.00 0.00 0.00 50 1028.1
20260906130008 15 311 3.2 8.0 0.00 0.00 0.00 50 1028.0
20260906124507 15 10 3.2 6.4 0.00 0.00 0.00 51 1027.9
20260906123027 15 344 0.0 8.0 0.00 0.00 0.00 51 1027.8
20260906121522 15 349 3.2 8.0 0.00 0.00 0.00 51 1027.8
20260906120009 15 352 6.4 11.3 0.00 0.00 0.00 51 1027.9
20260906114511 15 351 4.8 12.9 0.00 0.00 0.00 52 1027.9
20260906113008 15 304 4.8 9.7 0.00 0.00 0.00 52 1027.9
20260906111515 15 307 1.6 6.4 0.00 0.00 0.00 52 1027.9
20260906110032 15 344 1.6 4.8 0.00 0.00 0.00 52 1027.9
20260906104532 15 19 0.0 8.0 0.00 0.00 0.00 53 1027.9
20260906103028 14 19 4.8 8.0 0.00 0.00 0.00 53 1027.9
20260906101504 14 331 4.8 8.0 0.00 0.00 0.00 54 1027.8
20260906100012 14 296 1.6 12.9 0.00 0.00 0.00 54 1028.0
20260906094504 14 340 6.4 12.9 0.00 0.00 0.00 55 1028.0
20260906093006 15 355 4.8 8.0 0.00 0.00 0.00 54 1028.1
20260906091504 15 351 1.6 4.8 0.00 0.00 0.00 53 1027.9
20260906090006 15 18 1.6 11.3 0.00 0.00 0.00 52 1027.9
20260906084510 15 269 1.6 9.7 0.00 0.00 0.00 52 1027.9
20260906083012 15 138 0.0 0.0 0.00 0.00 0.00 51 1028.0
20260906081504 15 138 0.0 4.8 0.00 0.00 0.00 51 1028.1
20260906080008 15 138 3.2 6.4 0.00 0.00 0.00 51 1028.3
20260906074504 15 355 0.0 4.8 0.00 0.00 0.00 52 1028.3
20260906073007 15 355 1.6 8.0 0.00 0.00 0.00 52 1028.3
20260906071525 15 312 4.8 16.1 0.00 0.00 0.00 52 1028.2
20260906070004 16 65 0.0 4.8 0.00 0.00 0.00 50 1028.1
20260906064514 16 150 3.2 6.4 0.00 0.00 0.00 48 1028.4
20260906063010 17 94 1.6 9.7 0.00 0.00 0.00 47 1028.7
20260906061508 17 136 3.2 9.7 0.00 0.00 0.00 46 1028.6
20260906060010 17 128 6.4 12.9 0.00 0.00 0.00 46 1028.4
20260906054530 17 146 4.8 9.7 0.00 0.00 0.00 47 1028.7
20260906053011 17 109 3.2 6.4 0.00 0.00 0.00 47 1028.6
20260906051518 17 126 1.6 12.9 0.00 0.00 0.00 46 1028.6
20260906050003 17 171 8.0 17.7 0.00 0.00 0.00 46 1028.5
20260906044512 17 171 11.3 17.7 0.00 0.00 0.00 50 1028.5
20260906043007 16 352 1.6 14.5 0.00 0.00 0.00 51 1028.2
20260906041508 16 293 6.4 14.5 0.00 0.00 0.00 50 1028.2
20260906040020 16 291 3.2 12.9 0.00 0.00 0.00 52 1028.2
20260906034520 16 286 8.0 14.5 0.00 0.00 0.00 51 1028.4
20260906033013 16 282 8.0 12.9 0.00 0.00 0.00 51 1028.4
20260906031513 16 274 3.2 12.9 0.00 0.00 0.00 51 1028.3
20260906030011 17 284 6.4 12.9 0.00 0.00 0.00 50 1028.2
20260906024518 17 277 8.0 14.5 0.00 0.00 0.00 49 1028.1
20260906023030 17 292 6.4 14.5 0.00 0.00 0.00 48 1028.0
20260906021504 17 242 4.8 9.7 0.00 0.00 0.00 49 1028.1
20260906020004 17 298 4.8 16.1 0.00 0.00 0.00 48 1027.8
20260906014503 17 276 6.4 14.5 0.00 0.00 0.00 48 1027.9
20260906013021 18 234 6.4 17.7 0.00 0.00 0.00 47 1027.9
20260906011502 18 265 8.0 14.5 0.00 0.00 0.00 45 1027.9
20260906010007 19 34 1.6 14.5 0.00 0.00 0.00 44 1027.8
20260906004504 20 154 14.5 29.0 0.00 0.00 0.00 41 1028.3
20260906003003 20 154 6.4 12.9 0.00 0.00 0.00 42 1028.7
20260906001502 20 12 8.0 14.5 0.00 0.00 0.00 41 1028.4
20260906000004 21 338 6.4 17.7 0.00 0.00 0.00 40 1028.3
20260905234508 21 360 14.5 24.1 0.00 0.00 0.00 39 1028.2
20260905233015 21 360 20.9 25.7 0.00 0.00 0.00 39 1028.1
20260905231503 20 108 14.5 22.5 0.00 0.00 0.00 38 1028.0
20260905230004 21 140 12.9 25.7 0.00 0.00 0.00 40 1027.9
20260905224504 22 145 16.1 40.2 0.00 0.00 0.00 36 1027.6
20260905223006 23 139 8.0 16.1 0.00 0.00 0.00 31 1027.4
20260905221529 23 159 1.6 12.9 0.00 0.00 0.00 30 1027.4